contact:dominique.lefevre@mio.osupytheas.fr, maurice.libes@osupytheas.fr, didier.mallarino@osupytheas.fr
Project:EMSO http://www.emso-fr.org/EMSO-France
Depth: 2436.0 m
Title:EMSO Ligure Ouest : Data MII capteur MICROCAT
DateTime_Computer,Latitude,Longitude,Temperature,Conductivity,Pressure,DateTime_Instrument
DateTime_Computer,Latitude,Longitude,degC,S m-1,dbar,DateTime_Instrument
2022-08-05T00:00:45Z,42.805,6.029,13.3017,4.60055,2470.74,2022-8-05T02:02:33Z
2022-08-05T00:03:48Z,42.805,6.029,13.3021,4.60064,2470.74,2022-8-05T02:05:36Z
2022-08-05T00:06:51Z,42.805,6.029,13.3010,4.60061,2470.763,2022-8-05T02:08:39Z
2022-08-05T00:09:54Z,42.805,6.029,13.3014,4.60059,2470.754,2022-8-05T02:11:43Z
2022-08-05T00:12:57Z,42.805,6.029,13.3012,4.60055,2470.693,2022-8-05T02:14:46Z
2022-08-05T00:16:00Z,42.805,6.029,13.3014,4.60059,2470.717,2022-8-05T02:17:49Z
2022-08-05T00:19:04Z,42.805,6.029,13.3014,4.60057,2470.707,2022-8-05T02:20:52Z
2022-08-05T00:22:07Z,42.805,6.029,13.3009,4.60060,2470.754,2022-8-05T02:23:55Z
2022-08-05T00:25:10Z,42.805,6.029,13.3015,4.60056,2470.74,2022-8-05T02:26:58Z
2022-08-05T00:28:13Z,42.805,6.029,13.3008,4.60058,2470.74,2022-8-05T02:30:01Z
2022-08-05T00:31:16Z,42.805,6.029,13.3010,4.60060,2470.777,2022-8-05T02:33:04Z
2022-08-05T00:34:19Z,42.805,6.029,13.3012,4.60063,2470.717,2022-8-05T02:36:07Z
2022-08-05T00:37:22Z,42.805,6.029,13.3015,4.60058,2470.717,2022-8-05T02:39:11Z
2022-08-05T00:40:25Z,42.805,6.029,13.3014,4.60054,2470.74,2022-8-05T02:42:14Z
2022-08-05T00:43:28Z,42.805,6.029,13.3015,4.60061,2470.707,2022-8-05T02:45:17Z
2022-08-05T00:46:32Z,42.805,6.029,13.3009,4.60061,2470.717,2022-8-05T02:48:20Z
2022-08-05T00:49:35Z,42.805,6.029,13.3015,4.60060,2470.693,2022-8-05T02:51:23Z
2022-08-05T00:52:38Z,42.805,6.029,13.3010,4.60064,2470.693,2022-8-05T02:54:26Z
2022-08-05T00:55:41Z,42.805,6.029,13.3016,4.60060,2470.717,2022-8-05T02:57:29Z
2022-08-05T00:58:44Z,42.805,6.029,13.3009,4.60053,2470.693,2022-8-05T03:00:32Z
2022-08-05T01:01:47Z,42.805,6.029,13.3012,4.60060,2470.717,2022-8-05T03:03:35Z
2022-08-05T01:04:50Z,42.805,6.029,13.3014,4.60058,2470.754,2022-8-05T03:06:39Z
2022-08-05T01:07:53Z,42.805,6.029,13.3014,4.60055,2470.717,2022-8-05T03:09:42Z
2022-08-05T01:10:57Z,42.805,6.029,13.3014,4.60053,2470.707,2022-8-05T03:12:45Z
2022-08-05T01:14:00Z,42.805,6.029,13.3016,4.60055,2470.717,2022-8-05T03:15:48Z
2022-08-05T01:17:03Z,42.805,6.029,13.3014,4.60064,2470.693,2022-8-05T03:18:51Z
2022-08-05T01:20:06Z,42.805,6.029,13.3013,4.60053,2470.717,2022-8-05T03:21:54Z
2022-08-05T01:23:09Z,42.805,6.029,13.3009,4.60058,2470.707,2022-8-05T03:24:57Z
2022-08-05T01:26:12Z,42.805,6.029,13.3011,4.60052,2470.693,2022-8-05T03:28:00Z
2022-08-05T01:29:15Z,42.805,6.029,13.3009,4.60053,2470.693,2022-8-05T03:31:03Z
2022-08-05T01:32:18Z,42.805,6.029,13.3012,4.60061,2470.693,2022-8-05T03:34:07Z
2022-08-05T01:35:21Z,42.805,6.029,13.3009,4.60064,2470.707,2022-8-05T03:37:10Z
2022-08-05T01:38:25Z,42.805,6.029,13.3006,4.60054,2470.693,2022-8-05T03:40:13Z
2022-08-05T01:41:28Z,42.805,6.029,13.3012,4.60054,2470.693,2022-8-05T03:43:16Z
2022-08-05T01:44:31Z,42.805,6.029,13.3014,4.60057,2470.717,2022-8-05T03:46:19Z
2022-08-05T01:47:34Z,42.805,6.029,13.3021,4.60074,2470.693,2022-8-05T03:49:22Z
2022-08-05T01:50:37Z,42.805,6.029,13.3015,4.60063,2470.67,2022-8-05T03:52:25Z
2022-08-05T01:53:40Z,42.805,6.029,13.3015,4.60058,2470.67,2022-8-05T03:55:28Z
2022-08-05T01:56:43Z,42.805,6.029,13.3010,4.60051,2470.693,2022-8-05T03:58:32Z
2022-08-05T01:59:46Z,42.805,6.029,13.3019,4.60059,2470.707,2022-8-05T04:01:35Z
2022-08-05T02:02:49Z,42.805,6.029,13.3008,4.60057,2470.707,2022-8-05T04:04:38Z
2022-08-05T02:05:53Z,42.805,6.029,13.3016,4.60053,2470.693,2022-8-05T04:07:41Z
2022-08-05T02:08:56Z,42.805,6.029,13.3011,4.60058,2470.646,2022-8-05T04:10:44Z
2022-08-05T02:11:59Z,42.805,6.029,13.3015,4.60057,2470.67,2022-8-05T04:13:47Z
2022-08-05T02:15:02Z,42.805,6.029,13.3015,4.60056,2470.67,2022-8-05T04:16:50Z
2022-08-05T02:18:05Z,42.805,6.029,13.3012,4.60062,2470.707,2022-8-05T04:19:53Z
2022-08-05T02:21:08Z,42.805,6.029,13.3014,4.60063,2470.67,2022-8-05T04:22:56Z
2022-08-05T02:24:11Z,42.805,6.029,13.3014,4.60057,2470.624,2022-8-05T04:26:00Z
2022-08-05T02:27:14Z,42.805,6.029,13.3011,4.60053,2470.646,2022-8-05T04:29:03Z
2022-08-05T02:30:18Z,42.805,6.029,13.3012,4.60063,2470.693,2022-8-05T04:32:06Z
2022-08-05T02:33:21Z,42.805,6.029,13.3014,4.60066,2470.646,2022-8-05T04:35:09Z
2022-08-05T02:36:24Z,42.805,6.029,13.3017,4.60067,2470.67,2022-8-05T04:38:12Z
2022-08-05T02:39:27Z,42.805,6.029,13.3017,4.60061,2470.67,2022-8-05T04:41:15Z
2022-08-05T02:42:30Z,42.805,6.029,13.3015,4.60059,2470.646,2022-8-05T04:44:18Z
2022-08-05T02:45:33Z,42.805,6.029,13.3020,4.60061,2470.646,2022-8-05T04:47:21Z
2022-08-05T02:48:36Z,42.805,6.029,13.3014,4.60057,2470.646,2022-8-05T04:50:25Z
2022-08-05T02:51:39Z,42.805,6.029,13.3010,4.60049,2470.684,2022-8-05T04:53:28Z
2022-08-05T02:54:42Z,42.805,6.029,13.3017,4.60059,2470.656,2022-8-05T04:56:31Z
2022-08-05T02:57:46Z,42.805,6.029,13.3014,4.60057,2470.646,2022-8-05T04:59:34Z
2022-08-05T03:00:49Z,42.805,6.029,13.3011,4.60069,2470.67,2022-8-05T05:02:37Z
2022-08-05T03:03:52Z,42.805,6.029,13.3012,4.60057,2470.646,2022-8-05T05:05:40Z
2022-08-05T03:06:55Z,42.805,6.029,13.3011,4.60054,2470.684,2022-8-05T05:08:43Z
2022-08-05T03:09:58Z,42.805,6.029,13.3011,4.60057,2470.684,2022-8-05T05:11:46Z
2022-08-05T03:13:01Z,42.805,6.029,13.3011,4.60057,2470.646,2022-8-05T05:14:49Z
2022-08-05T03:16:04Z,42.805,6.029,13.3014,4.60061,2470.661,2022-8-05T05:17:53Z
2022-08-05T03:19:07Z,42.805,6.029,13.3016,4.60063,2470.633,2022-8-05T05:20:56Z
2022-08-05T03:22:10Z,42.805,6.029,13.3019,4.60069,2470.661,2022-8-05T05:23:59Z
2022-08-05T03:25:14Z,42.805,6.029,13.3019,4.60065,2470.646,2022-8-05T05:27:02Z
2022-08-05T03:28:17Z,42.805,6.029,13.3010,4.60057,2470.637,2022-8-05T05:30:05Z
2022-08-05T03:31:20Z,42.805,6.029,13.3012,4.60057,2470.646,2022-8-05T05:33:08Z
2022-08-05T03:34:23Z,42.805,6.029,13.3013,4.60054,2470.624,2022-8-05T05:36:11Z
2022-08-05T03:37:26Z,42.805,6.029,13.3010,4.60057,2470.661,2022-8-05T05:39:14Z
2022-08-05T03:40:29Z,42.805,6.029,13.3021,4.60072,2470.646,2022-8-05T05:42:18Z
2022-08-05T03:43:32Z,42.805,6.029,13.3017,4.60074,2470.637,2022-8-05T05:45:21Z
2022-08-05T03:46:35Z,42.805,6.029,13.3014,4.60061,2470.637,2022-8-05T05:48:24Z
2022-08-05T03:49:39Z,42.805,6.029,13.3010,4.60080,2470.661,2022-8-05T05:51:27Z
2022-08-05T03:52:42Z,42.805,6.029,13.3011,4.60063,2470.646,2022-8-05T05:54:30Z
2022-08-05T03:55:45Z,42.805,6.029,13.3011,4.60069,2470.624,2022-8-05T05:57:33Z
2022-08-05T03:58:48Z,42.805,6.029,13.3009,4.60052,2470.624,2022-8-05T06:00:36Z
2022-08-05T04:01:51Z,42.805,6.029,13.3015,4.60060,2470.624,2022-8-05T06:03:39Z
2022-08-05T04:04:54Z,42.805,6.029,13.3017,4.60053,2470.637,2022-8-05T06:06:42Z
2022-08-05T04:07:57Z,42.805,6.029,13.3013,4.60054,2470.624,2022-8-05T06:09:46Z
2022-08-05T04:11:00Z,42.805,6.029,13.3009,4.60056,2470.624,2022-8-05T06:12:49Z
2022-08-05T04:14:03Z,42.805,6.029,13.3007,4.60057,2470.6,2022-8-05T06:15:52Z
2022-08-05T04:17:07Z,42.805,6.029,13.3015,4.60065,2470.624,2022-8-05T06:18:55Z
2022-08-05T04:20:10Z,42.805,6.029,13.3015,4.60064,2470.661,2022-8-05T06:21:58Z
2022-08-05T04:23:13Z,42.805,6.029,13.3010,4.60059,2470.646,2022-8-05T06:25:01Z
2022-08-05T04:26:16Z,42.805,6.029,13.3008,4.60059,2470.661,2022-8-05T06:28:04Z
2022-08-05T04:29:19Z,42.805,6.029,13.3010,4.60056,2470.624,2022-8-05T06:31:07Z
2022-08-05T04:32:22Z,42.805,6.029,13.3010,4.60054,2470.637,2022-8-05T06:34:11Z
2022-08-05T04:35:25Z,42.805,6.029,13.3012,4.60066,2470.6,2022-8-05T06:37:14Z
2022-08-05T04:38:28Z,42.805,6.029,13.3015,4.60059,2470.624,2022-8-05T06:40:17Z
2022-08-05T04:41:32Z,42.805,6.029,13.3017,4.60068,2470.637,2022-8-05T06:43:20Z
2022-08-05T04:44:35Z,42.805,6.029,13.3014,4.60070,2470.637,2022-8-05T06:46:23Z
2022-08-05T04:47:38Z,42.805,6.029,13.3007,4.60055,2470.624,2022-8-05T06:49:26Z
2022-08-05T04:50:41Z,42.805,6.029,13.3018,4.60064,2470.553,2022-8-05T06:52:29Z
2022-08-05T04:53:44Z,42.805,6.029,13.3018,4.60076,2470.624,2022-8-05T06:55:32Z
2022-08-05T04:56:47Z,42.805,6.029,13.3016,4.60074,2470.6,2022-8-05T06:58:35Z
2022-08-05T04:59:50Z,42.805,6.029,13.3015,4.60070,2470.624,2022-8-05T07:01:39Z
2022-08-05T05:02:53Z,42.805,6.029,13.3019,4.60076,2470.614,2022-8-05T07:04:42Z
2022-08-05T05:05:56Z,42.805,6.029,13.3011,4.60066,2470.6,2022-8-05T07:07:45Z
2022-08-05T05:09:00Z,42.805,6.029,13.3019,4.60062,2470.6,2022-8-05T07:10:48Z
2022-08-05T05:12:03Z,42.805,6.029,13.3019,4.60073,2470.6,2022-8-05T07:13:51Z
2022-08-05T05:15:06Z,42.805,6.029,13.3015,4.60066,2470.614,2022-8-05T07:16:54Z
2022-08-05T05:18:09Z,42.805,6.029,13.3016,4.60061,2470.6,2022-8-05T07:19:57Z
2022-08-05T05:21:12Z,42.805,6.029,13.3014,4.60063,2470.624,2022-8-05T07:23:00Z
2022-08-05T05:24:15Z,42.805,6.029,13.3008,4.60057,2470.624,2022-8-05T07:26:04Z
2022-08-05T05:27:18Z,42.805,6.029,13.3015,4.60072,2470.6,2022-8-05T07:29:07Z
2022-08-05T05:30:21Z,42.805,6.029,13.3009,4.60057,2470.614,2022-8-05T07:32:10Z
2022-08-05T05:33:25Z,42.805,6.029,13.3010,4.60062,2470.614,2022-8-05T07:35:13Z
2022-08-05T05:36:28Z,42.805,6.029,13.3013,4.60068,2470.6,2022-8-05T07:38:16Z
2022-08-05T05:39:31Z,42.805,6.029,13.3015,4.60074,2470.591,2022-8-05T07:41:19Z
2022-08-05T05:42:34Z,42.805,6.029,13.3014,4.60066,2470.6,2022-8-05T07:44:22Z
2022-08-05T05:45:37Z,42.805,6.029,13.3012,4.60053,2470.577,2022-8-05T07:47:25Z
2022-08-05T05:48:40Z,42.805,6.029,13.3014,4.60059,2470.577,2022-8-05T07:50:28Z
2022-08-05T05:51:43Z,42.805,6.029,13.3014,4.60062,2470.6,2022-8-05T07:53:32Z
2022-08-05T05:54:46Z,42.805,6.029,13.3014,4.60067,2470.637,2022-8-05T07:56:35Z
2022-08-05T05:57:49Z,42.805,6.029,13.3014,4.60060,2470.577,2022-8-05T07:59:38Z
2022-08-05T06:00:53Z,42.805,6.029,13.3013,4.60064,2470.553,2022-8-05T08:02:41Z
2022-08-05T06:03:56Z,42.805,6.029,13.3011,4.60067,2470.577,2022-8-05T08:05:44Z
2022-08-05T06:06:59Z,42.805,6.029,13.3011,4.60058,2470.577,2022-8-05T08:08:47Z
2022-08-05T06:10:02Z,42.805,6.029,13.3015,4.60059,2470.591,2022-8-05T08:11:50Z
2022-08-05T06:13:05Z,42.805,6.029,13.3015,4.60083,2470.577,2022-8-05T08:14:53Z
2022-08-05T06:16:08Z,42.805,6.029,13.3016,4.60062,2470.577,2022-8-05T08:17:56Z
2022-08-05T06:19:11Z,42.805,6.029,13.3020,4.60074,2470.591,2022-8-05T08:21:00Z
2022-08-05T06:22:14Z,42.805,6.029,13.3014,4.60062,2470.591,2022-8-05T08:24:03Z
2022-08-05T06:25:17Z,42.805,6.029,13.3023,4.60080,2470.591,2022-8-05T08:27:06Z
2022-08-05T06:28:21Z,42.805,6.029,13.3014,4.60065,2470.553,2022-8-05T08:30:09Z
2022-08-05T06:31:24Z,42.805,6.029,13.3013,4.60072,2470.577,2022-8-05T08:33:12Z
2022-08-05T06:34:27Z,42.805,6.029,13.3016,4.60059,2470.577,2022-8-05T08:36:15Z
2022-08-05T06:37:30Z,42.805,6.029,13.3018,4.60066,2470.544,2022-8-05T08:39:18Z
2022-08-05T06:40:33Z,42.805,6.029,13.3023,4.60070,2470.577,2022-8-05T08:42:21Z
2022-08-05T06:43:36Z,42.805,6.029,13.3011,4.60067,2470.577,2022-8-05T08:45:24Z
2022-08-05T06:46:39Z,42.805,6.029,13.3011,4.60062,2470.591,2022-8-05T08:48:28Z
2022-08-05T06:49:42Z,42.805,6.029,13.3018,4.60067,2470.553,2022-8-05T08:51:31Z
2022-08-05T06:52:46Z,42.805,6.029,13.3014,4.60061,2470.553,2022-8-05T08:54:34Z
2022-08-05T06:55:49Z,42.805,6.029,13.3013,4.60057,2470.614,2022-8-05T08:57:37Z
2022-08-05T06:58:52Z,42.805,6.029,13.3018,4.60063,2470.591,2022-8-05T09:00:40Z
2022-08-05T07:01:55Z,42.805,6.029,13.3016,4.60064,2470.567,2022-8-05T09:03:43Z
2022-08-05T07:04:58Z,42.805,6.029,13.3015,4.60064,2470.591,2022-8-05T09:06:46Z
2022-08-05T07:08:01Z,42.805,6.029,13.3015,4.60056,2470.577,2022-8-05T09:09:49Z
2022-08-05T07:11:04Z,42.805,6.029,13.3015,4.60058,2470.577,2022-8-05T09:12:53Z
2022-08-05T07:14:07Z,42.805,6.029,13.3015,4.60059,2470.553,2022-8-05T09:15:56Z
2022-08-05T07:17:10Z,42.805,6.029,13.3010,4.60067,2470.553,2022-8-05T09:18:59Z
2022-08-05T07:20:14Z,42.805,6.029,13.3013,4.60057,2470.567,2022-8-05T09:22:02Z
2022-08-05T07:23:17Z,42.805,6.029,13.3014,4.60062,2470.591,2022-8-05T09:25:05Z
2022-08-05T07:26:20Z,42.805,6.029,13.3017,4.60067,2470.577,2022-8-05T09:28:08Z
2022-08-05T07:29:23Z,42.805,6.029,13.3017,4.60062,2470.553,2022-8-05T09:31:11Z
2022-08-05T07:32:26Z,42.805,6.029,13.3014,4.60067,2470.577,2022-8-05T09:34:14Z
2022-08-05T07:35:29Z,42.805,6.029,13.3015,4.60060,2470.624,2022-8-05T09:37:17Z
2022-08-05T07:38:32Z,42.805,6.029,13.3009,4.60061,2470.577,2022-8-05T09:40:21Z
2022-08-05T07:41:35Z,42.805,6.029,13.3011,4.60055,2470.553,2022-8-05T09:43:24Z
2022-08-05T07:44:39Z,42.805,6.029,13.3014,4.60057,2470.577,2022-8-05T09:46:27Z
2022-08-05T07:47:42Z,42.805,6.029,13.3009,4.60058,2470.614,2022-8-05T09:49:30Z
2022-08-05T07:50:45Z,42.805,6.029,13.3017,4.60066,2470.577,2022-8-05T09:52:33Z
2022-08-05T07:53:48Z,42.805,6.029,13.3015,4.60075,2470.577,2022-8-05T09:55:36Z
2022-08-05T07:56:51Z,42.805,6.029,13.3015,4.60081,2470.567,2022-8-05T09:58:39Z
2022-08-05T07:59:54Z,42.805,6.029,13.3021,4.60075,2470.577,2022-8-05T10:01:42Z
2022-08-05T08:02:57Z,42.805,6.029,13.3024,4.60079,2470.591,2022-8-05T10:04:46Z
2022-08-05T08:06:00Z,42.805,6.029,13.3010,4.60061,2470.591,2022-8-05T10:07:49Z
2022-08-05T08:09:03Z,42.805,6.029,13.3014,4.60062,2470.591,2022-8-05T10:10:52Z
2022-08-05T08:12:07Z,42.805,6.029,13.3018,4.60074,2470.6,2022-8-05T10:13:55Z
2022-08-05T08:15:10Z,42.805,6.029,13.3021,4.60074,2470.591,2022-8-05T10:16:58Z
2022-08-05T08:21:16Z,42.805,6.029,13.3014,4.60064,2470.614,2022-8-05T10:23:04Z
2022-08-05T08:24:19Z,42.805,6.029,13.3015,4.60059,2470.553,2022-8-05T10:26:07Z
2022-08-05T08:27:22Z,42.805,6.029,13.3016,4.60071,2470.577,2022-8-05T10:29:10Z
2022-08-05T08:30:25Z,42.805,6.029,13.3011,4.60061,2470.6,2022-8-05T10:32:14Z
2022-08-05T08:33:28Z,42.805,6.029,13.3011,4.60056,2470.577,2022-8-05T10:35:17Z
2022-08-05T08:36:31Z,42.805,6.029,13.3009,4.60056,2470.53,2022-8-05T10:38:20Z
2022-08-05T08:39:35Z,42.805,6.029,13.3014,4.60082,2470.577,2022-8-05T10:41:23Z
2022-08-05T08:42:38Z,42.805,6.029,13.3024,4.60081,2470.577,2022-8-05T10:44:26Z
2022-08-05T08:45:41Z,42.805,6.029,13.3019,4.60066,2470.577,2022-8-05T10:47:29Z
2022-08-05T08:48:44Z,42.805,6.029,13.3016,4.60059,2470.614,2022-8-05T10:50:32Z
2022-08-05T08:51:47Z,42.805,6.029,13.3012,4.60064,2470.6,2022-8-05T10:53:35Z
2022-08-05T08:54:50Z,42.805,6.029,13.3012,4.60074,2470.614,2022-8-05T10:56:39Z
2022-08-05T08:57:53Z,42.805,6.029,13.3011,4.60058,2470.577,2022-8-05T10:59:42Z
2022-08-05T09:00:56Z,42.805,6.029,13.3022,4.60070,2470.577,2022-8-05T11:02:45Z
2022-08-05T09:04:00Z,42.805,6.029,13.3016,4.60059,2470.6,2022-8-05T11:05:48Z
2022-08-05T09:07:03Z,42.805,6.029,13.3015,4.60059,2470.624,2022-8-05T11:08:51Z
2022-08-05T09:10:06Z,42.805,6.029,13.3011,4.60056,2470.624,2022-8-05T11:11:54Z
2022-08-05T09:13:09Z,42.805,6.029,13.3014,4.60062,2470.624,2022-8-05T11:14:57Z
2022-08-05T09:16:12Z,42.805,6.029,13.3017,4.60078,2470.591,2022-8-05T11:18:00Z
2022-08-05T09:19:15Z,42.805,6.029,13.3019,4.60062,2470.6,2022-8-05T11:21:03Z
2022-08-05T09:22:18Z,42.805,6.029,13.3018,4.60072,2470.67,2022-8-05T11:24:07Z
2022-08-05T09:25:21Z,42.805,6.029,13.3014,4.60087,2470.6,2022-8-05T11:27:10Z
2022-08-05T09:28:25Z,42.805,6.029,13.3011,4.60062,2470.6,2022-8-05T11:30:13Z
2022-08-05T09:31:28Z,42.805,6.029,13.3014,4.60067,2470.624,2022-8-05T11:33:16Z
2022-08-05T09:34:31Z,42.805,6.029,13.3021,4.60084,2470.624,2022-8-05T11:36:19Z
2022-08-05T09:37:34Z,42.805,6.029,13.3018,4.60073,2470.614,2022-8-05T11:39:22Z
2022-08-05T09:40:37Z,42.805,6.029,13.3016,4.60064,2470.637,2022-8-05T11:42:25Z
2022-08-05T09:43:40Z,42.805,6.029,13.3027,4.60069,2470.586,2022-8-05T11:45:28Z
2022-08-05T09:46:43Z,42.805,6.029,13.3009,4.60068,2470.614,2022-8-05T11:48:32Z
2022-08-05T09:49:46Z,42.805,6.029,13.3022,4.60064,2470.624,2022-8-05T11:51:35Z
2022-08-05T09:52:50Z,42.805,6.029,13.3018,4.60064,2470.6,2022-8-05T11:54:38Z
2022-08-05T09:55:53Z,42.805,6.029,13.3021,4.60062,2470.6,2022-8-05T11:57:41Z
2022-08-05T09:58:56Z,42.805,6.029,13.3015,4.60079,2470.674,2022-8-05T12:00:44Z
2022-08-05T10:01:59Z,42.805,6.029,13.3014,4.60059,2470.637,2022-8-05T12:03:47Z
2022-08-05T10:05:02Z,42.805,6.029,13.3014,4.60067,2470.661,2022-8-05T12:06:50Z
2022-08-05T10:08:05Z,42.805,6.029,13.3019,4.60087,2470.637,2022-8-05T12:09:53Z
2022-08-05T10:11:08Z,42.805,6.029,13.3015,4.60064,2470.646,2022-8-05T12:12:57Z
2022-08-05T10:14:11Z,42.805,6.029,13.3021,4.60069,2470.661,2022-8-05T12:16:00Z
2022-08-05T10:17:14Z,42.805,6.029,13.3022,4.60080,2470.624,2022-8-05T12:19:03Z
2022-08-05T10:20:18Z,42.805,6.029,13.3014,4.60086,2470.624,2022-8-05T12:22:06Z
2022-08-05T10:23:21Z,42.805,6.029,13.3014,4.60078,2470.646,2022-8-05T12:25:09Z
2022-08-05T10:26:24Z,42.805,6.029,13.3018,4.60072,2470.646,2022-8-05T12:28:12Z
2022-08-05T10:29:27Z,42.805,6.029,13.3019,4.60082,2470.661,2022-8-05T12:31:15Z
2022-08-05T10:32:30Z,42.805,6.029,13.3017,4.60075,2470.646,2022-8-05T12:34:18Z
2022-08-05T10:35:33Z,42.805,6.029,13.3014,4.60069,2470.624,2022-8-05T12:37:22Z
2022-08-05T10:38:36Z,42.805,6.029,13.3014,4.60062,2470.684,2022-8-05T12:40:25Z
2022-08-05T10:41:39Z,42.805,6.029,13.3011,4.60064,2470.646,2022-8-05T12:43:28Z
2022-08-05T10:44:43Z,42.805,6.029,13.3015,4.60062,2470.646,2022-8-05T12:46:31Z
2022-08-05T10:47:46Z,42.805,6.029,13.3021,4.60068,2470.67,2022-8-05T12:49:34Z
2022-08-05T10:50:49Z,42.805,6.029,13.3019,4.60064,2470.646,2022-8-05T12:52:37Z
2022-08-05T10:53:52Z,42.805,6.029,13.3012,4.60058,2470.661,2022-8-05T12:55:40Z
2022-08-05T10:56:55Z,42.805,6.029,13.3015,4.60080,2470.646,2022-8-05T12:58:43Z
2022-08-05T10:59:58Z,42.805,6.029,13.3015,4.60073,2470.646,2022-8-05T13:01:47Z
2022-08-05T11:03:01Z,42.805,6.029,13.3016,4.60073,2470.646,2022-8-05T13:04:50Z
2022-08-05T11:06:04Z,42.805,6.029,13.3021,4.60079,2470.67,2022-8-05T13:07:53Z
2022-08-05T11:09:08Z,42.805,6.029,13.3016,4.60070,2470.693,2022-8-05T13:10:56Z
2022-08-05T11:12:11Z,42.805,6.029,13.3019,4.60078,2470.646,2022-8-05T13:13:59Z
2022-08-05T11:15:14Z,42.805,6.029,13.3019,4.60067,2470.684,2022-8-05T13:17:02Z
2022-08-05T11:18:17Z,42.805,6.029,13.3023,4.60072,2470.646,2022-8-05T13:20:05Z
2022-08-05T11:21:20Z,42.805,6.029,13.3021,4.60064,2470.67,2022-8-05T13:23:08Z
2022-08-05T11:24:23Z,42.805,6.029,13.3015,4.60064,2470.684,2022-8-05T13:26:11Z
2022-08-05T11:27:26Z,42.805,6.029,13.3018,4.60091,2470.646,2022-8-05T13:29:15Z
2022-08-05T11:30:29Z,42.805,6.029,13.3021,4.60085,2470.67,2022-8-05T13:32:18Z
2022-08-05T11:33:33Z,42.805,6.029,13.3024,4.60082,2470.684,2022-8-05T13:35:21Z
2022-08-05T11:36:36Z,42.805,6.029,13.3019,4.60082,2470.67,2022-8-05T13:38:24Z
2022-08-05T11:39:39Z,42.805,6.029,13.3011,4.60063,2470.661,2022-8-05T13:41:27Z
2022-08-05T11:42:42Z,42.805,6.029,13.3016,4.60066,2470.684,2022-8-05T13:44:30Z
2022-08-05T11:45:45Z,42.805,6.029,13.3017,4.60067,2470.646,2022-8-05T13:47:33Z
2022-08-05T11:48:48Z,42.805,6.029,13.3015,4.60074,2470.67,2022-8-05T13:50:36Z
2022-08-05T11:51:51Z,42.805,6.029,13.3013,4.60069,2470.646,2022-8-05T13:53:40Z
2022-08-05T11:54:54Z,42.805,6.029,13.3015,4.60061,2470.684,2022-8-05T13:56:43Z
2022-08-05T11:57:57Z,42.805,6.029,13.3015,4.60074,2470.67,2022-8-05T13:59:46Z
2022-08-05T12:01:01Z,42.805,6.029,13.3026,4.60081,2470.684,2022-8-05T14:02:49Z
2022-08-05T12:04:04Z,42.805,6.029,13.3012,4.60072,2470.67,2022-8-05T14:05:52Z
2022-08-05T12:07:07Z,42.805,6.029,13.3021,4.60084,2470.646,2022-8-05T14:08:55Z
2022-08-05T12:10:10Z,42.805,6.029,13.3014,4.60074,2470.646,2022-8-05T14:11:58Z
2022-08-05T12:13:13Z,42.805,6.029,13.3017,4.60063,2470.656,2022-8-05T14:15:01Z
2022-08-05T12:16:16Z,42.805,6.029,13.3019,4.60074,2470.646,2022-8-05T14:18:05Z
2022-08-05T12:19:19Z,42.805,6.029,13.3026,4.60081,2470.693,2022-8-05T14:21:08Z
2022-08-05T12:22:22Z,42.805,6.029,13.3021,4.60081,2470.684,2022-8-05T14:24:11Z
2022-08-05T12:25:26Z,42.805,6.029,13.3016,4.60073,2470.693,2022-8-05T14:27:14Z
2022-08-05T12:28:29Z,42.805,6.029,13.3018,4.60072,2470.67,2022-8-05T14:30:17Z
2022-08-05T12:31:32Z,42.805,6.029,13.3018,4.60084,2470.684,2022-8-05T14:33:20Z
2022-08-05T12:34:35Z,42.805,6.029,13.3021,4.60076,2470.67,2022-8-05T14:36:23Z
2022-08-05T12:37:38Z,42.805,6.029,13.3017,4.60060,2470.67,2022-8-05T14:39:26Z
2022-08-05T12:40:41Z,42.805,6.029,13.3013,4.60071,2470.693,2022-8-05T14:42:30Z
2022-08-05T12:43:44Z,42.805,6.029,13.3011,4.60086,2470.646,2022-8-05T14:45:33Z
2022-08-05T12:46:47Z,42.805,6.029,13.3015,4.60070,2470.67,2022-8-05T14:48:36Z
2022-08-05T12:49:51Z,42.805,6.029,13.3015,4.60064,2470.67,2022-8-05T14:51:39Z
2022-08-05T12:52:54Z,42.805,6.029,13.3014,4.60063,2470.67,2022-8-05T14:54:42Z
2022-08-05T12:55:57Z,42.805,6.029,13.3018,4.60064,2470.67,2022-8-05T14:57:45Z
2022-08-05T12:59:00Z,42.805,6.029,13.3016,4.60064,2470.67,2022-8-05T15:00:48Z
2022-08-05T13:02:03Z,42.805,6.029,13.3022,4.60074,2470.684,2022-8-05T15:03:51Z
2022-08-05T13:05:06Z,42.805,6.029,13.3023,4.60078,2470.67,2022-8-05T15:06:55Z
2022-08-05T13:08:09Z,42.805,6.029,13.3023,4.60073,2470.67,2022-8-05T15:09:58Z
2022-08-05T13:11:12Z,42.805,6.029,13.3015,4.60079,2470.67,2022-8-05T15:13:01Z
2022-08-05T13:14:15Z,42.805,6.029,13.3019,4.60069,2470.67,2022-8-05T15:16:04Z
2022-08-05T13:17:19Z,42.805,6.029,13.3015,4.60079,2470.693,2022-8-05T15:19:07Z
2022-08-05T13:20:22Z,42.805,6.029,13.3018,4.60079,2470.624,2022-8-05T15:22:10Z
2022-08-05T13:23:25Z,42.805,6.029,13.3022,4.60068,2470.67,2022-8-05T15:25:13Z
2022-08-05T13:26:28Z,42.805,6.029,13.3014,4.60077,2470.684,2022-8-05T15:28:16Z
2022-08-05T13:29:31Z,42.805,6.029,13.3016,4.60063,2470.67,2022-8-05T15:31:19Z
2022-08-05T13:32:34Z,42.805,6.029,13.3017,4.60059,2470.67,2022-8-05T15:34:23Z
2022-08-05T13:35:37Z,42.805,6.029,13.3017,4.60067,2470.693,2022-8-05T15:37:26Z
2022-08-05T13:38:40Z,42.805,6.029,13.3014,4.60052,2470.684,2022-8-05T15:40:29Z
2022-08-05T13:41:44Z,42.805,6.029,13.3014,4.60062,2470.67,2022-8-05T15:43:32Z
2022-08-05T13:44:47Z,42.805,6.029,13.3014,4.60062,2470.661,2022-8-05T15:46:35Z
2022-08-05T13:47:50Z,42.805,6.029,13.3019,4.60067,2470.624,2022-8-05T15:49:38Z
2022-08-05T13:50:53Z,42.805,6.029,13.3024,4.60072,2470.684,2022-8-05T15:52:41Z
2022-08-05T13:53:56Z,42.805,6.029,13.3011,4.60075,2470.646,2022-8-05T15:55:44Z
2022-08-05T13:56:59Z,42.805,6.029,13.3015,4.60089,2470.684,2022-8-05T15:58:48Z
2022-08-05T14:00:02Z,42.805,6.029,13.3020,4.60069,2470.646,2022-8-05T16:01:51Z
2022-08-05T14:03:05Z,42.805,6.029,13.3019,4.60064,2470.624,2022-8-05T16:04:54Z
2022-08-05T14:06:09Z,42.805,6.029,13.3015,4.60067,2470.633,2022-8-05T16:07:57Z
2022-08-05T14:09:12Z,42.805,6.029,13.3011,4.60084,2470.661,2022-8-05T16:11:00Z
2022-08-05T14:12:15Z,42.805,6.029,13.3022,4.60069,2470.67,2022-8-05T16:14:03Z
2022-08-05T14:15:18Z,42.805,6.029,13.3019,4.60067,2470.633,2022-8-05T16:17:06Z
2022-08-05T14:18:21Z,42.805,6.029,13.3018,4.60068,2470.646,2022-8-05T16:20:09Z
2022-08-05T14:21:24Z,42.805,6.029,13.3009,4.60071,2470.67,2022-8-05T16:23:13Z
2022-08-05T14:24:27Z,42.805,6.029,13.3012,4.60064,2470.67,2022-8-05T16:26:16Z
2022-08-05T14:27:30Z,42.805,6.029,13.3015,4.60070,2470.661,2022-8-05T16:29:19Z
2022-08-05T14:30:34Z,42.805,6.029,13.3019,4.60058,2470.684,2022-8-05T16:32:22Z
2022-08-05T14:33:37Z,42.805,6.029,13.3019,4.60064,2470.661,2022-8-05T16:35:25Z
2022-08-05T14:36:40Z,42.805,6.029,13.3013,4.60058,2470.646,2022-8-05T16:38:28Z
2022-08-05T14:39:43Z,42.805,6.029,13.3019,4.60063,2470.646,2022-8-05T16:41:31Z
2022-08-05T14:42:46Z,42.805,6.029,13.3013,4.60059,2470.646,2022-8-05T16:44:34Z
2022-08-05T14:45:49Z,42.805,6.029,13.3015,4.60070,2470.646,2022-8-05T16:47:38Z
2022-08-05T14:48:52Z,42.805,6.029,13.3012,4.60077,2470.646,2022-8-05T16:50:41Z
2022-08-05T14:51:55Z,42.805,6.029,13.3021,4.60077,2470.661,2022-8-05T16:53:44Z
2022-08-05T14:54:58Z,42.805,6.029,13.3022,4.60076,2470.661,2022-8-05T16:56:47Z
2022-08-05T14:58:02Z,42.805,6.029,13.3019,4.60063,2470.684,2022-8-05T16:59:50Z
2022-08-05T15:01:05Z,42.805,6.029,13.3014,4.60049,2470.661,2022-8-05T17:02:53Z
2022-08-05T15:04:08Z,42.805,6.029,13.3011,4.60057,2470.661,2022-8-05T17:05:56Z
2022-08-05T15:07:11Z,42.805,6.029,13.3014,4.60063,2470.646,2022-8-05T17:08:59Z
2022-08-05T15:10:14Z,42.805,6.029,13.3018,4.60073,2470.637,2022-8-05T17:12:02Z
2022-08-05T15:13:17Z,42.805,6.029,13.3012,4.60063,2470.624,2022-8-05T17:15:06Z